Weather History for Kingsville NAS, TX

Change the Weather History Date:

Tuesday, January 29, 2013

  Actual Average Record
Temperature  
Mean Temperature 80 °F -  
Max Temperature 92 °F 67 °F 92 °F (2013)
Min Temperature 69 °F 48 °F 36 °F (1997)
Cooling Degree Days 16    
Growing Degree Days 30 (Base 50)    
Moisture  
Dew Point 65 °F    
Average Humidity 67    
Maximum Humidity 88    
Minimum Humidity 36    
Precipitation  
Precipitation 0.00 in - - ()
Sea Level Pressure  
Sea Level Pressure 29.72 in    
Wind  
Wind Speed 19 mph (South)    
Max Wind Speed 32 mph    
Max Gust Speed 41 mph    
Visibility 9 miles    
Events      
Averages and records for this station are not official NWS values.
T = Trace of Precipitation, MM = Missing Value Source: NWS Daily Summary

Daily Weather History Graph

Daily Weather History Graph

Search for Another Location

Airport:

Trip Planner

Search our weather history database for the weather conditions in past years. The results will help you decide how hot, cold, wet, or windy it might be!

Date:

Astronomy

Jan. 29, 2013 Rise Set
Actual Time 7:18 AM CST 6:10 PM CST
Civil Twilight 6:54 AM CST 6:34 PM CST
Nautical Twilight 6:26 AM CST 7:02 PM CST
Astronomical Twilight 5:58 AM CST 7:30 PM CST
Moon 8:46 PM CST 8:34 AM CST
Length of Visible Light 11h 40m
Length of Day
10h 51m
Waning Gibbous, 93% of the Moon is Illuminated
Jan 29
Waning Gibbous
Feb 3
Last Quarter
Feb 10
New
Feb 17
First Quarter
Feb 25
Full

Hourly Weather History & Observations

Time (CST) Temp. Heat Index Dew Point Humidity Pressure Visibility Wind Dir Wind Speed Gust Speed Precip Events Conditions
12:56 AM 73.0 °F - 69.1 °F 87% 29.86 in 8.0 mi SSE 15.0 mph - N/A   Overcast
1:00 AM - - - N/A% - - North - - N/A   Unknown
1:15 AM 73.4 °F - 69.8 °F 88% 29.86 in 8.0 mi SSE 18.4 mph - N/A   Overcast
1:56 AM 73.9 °F - 69.1 °F 85% 29.83 in 9.0 mi SSE 16.1 mph 24.2 mph N/A   Overcast
2:56 AM 73.9 °F - 68.0 °F 82% 29.81 in 10.0 mi SSE 17.3 mph - N/A   Overcast
3:56 AM 75.0 °F - 68.0 °F 79% 29.81 in 10.0 mi South 15.0 mph - N/A   Overcast
4:56 AM 75.0 °F - 68.0 °F 79% 29.79 in 10.0 mi North - - N/A   Overcast
5:03 AM 73.4 °F - 68.0 °F 83% 29.79 in 10.0 mi North - - N/A   Overcast
5:56 AM 75.0 °F - 68.0 °F 79% 29.79 in 10.0 mi South 18.4 mph - N/A   Overcast
6:31 AM 75.2 °F - 68.0 °F 78% 29.80 in 10.0 mi South 17.3 mph 25.3 mph N/A   Overcast
6:56 AM 73.9 °F - 68.0 °F 82% 29.78 in 10.0 mi South 23.0 mph 28.8 mph N/A   Overcast
7:43 AM 73.4 °F - 68.0 °F 83% 29.78 in 8.0 mi SSE 20.7 mph 29.9 mph N/A   Mostly Cloudy
7:56 AM 73.9 °F - 68.0 °F 82% 29.78 in 8.0 mi South 18.4 mph 26.5 mph N/A   Mostly Cloudy
8:19 AM 75.2 °F - 68.0 °F 78% 29.78 in 8.0 mi SSE 21.9 mph 29.9 mph N/A   Mostly Cloudy
8:56 AM 75.9 °F - 68.0 °F 76% 29.77 in 8.0 mi South 26.5 mph 38.0 mph N/A   Overcast
9:56 AM 79.0 °F - 68.0 °F 69% 29.77 in 8.0 mi South 31.1 mph 36.8 mph N/A   Overcast
10:31 AM 80.6 °F 82.7 °F 66.2 °F 61% 29.77 in 8.0 mi South 32.2 mph 41.4 mph N/A   Overcast
10:56 AM 82.0 °F 84.5 °F 66.9 °F 60% 29.75 in 9.0 mi South 32.2 mph 39.1 mph N/A   Overcast
11:56 AM 82.9 °F 85.4 °F 66.9 °F 58% 29.70 in 9.0 mi South 32.2 mph 39.1 mph N/A   Overcast
12:56 PM 86.0 °F 88.8 °F 66.9 °F 53% 29.65 in 8.0 mi South 25.3 mph 35.7 mph N/A   Mostly Cloudy
1:56 PM 91.2 °F 93.7 °F 66.0 °F 43% 29.62 in 9.0 mi South 23.0 mph 32.2 mph N/A   Mostly Cloudy
2:56 PM 92.3 °F 93.8 °F 64.0 °F 39% 29.59 in 9.0 mi South 19.6 mph 27.6 mph N/A   Mostly Cloudy
3:56 PM 90.0 °F 91.3 °F 64.0 °F 42% 29.57 in 9.0 mi South 19.6 mph - N/A   Overcast
4:56 PM 89.8 °F 90.0 °F 62.1 °F 39% 29.57 in 10.0 mi South 19.6 mph - N/A   Mostly Cloudy
5:56 PM 84.0 °F 86.5 °F 66.9 °F 56% 29.57 in 8.0 mi South 23.0 mph 27.6 mph N/A   Mostly Cloudy
6:56 PM 80.1 °F 82.3 °F 66.9 °F 64% 29.59 in 9.0 mi South 19.6 mph - N/A   Mostly Cloudy
7:56 PM 78.1 °F - 66.9 °F 68% 29.60 in 8.0 mi South 17.3 mph 25.3 mph N/A   Mostly Cloudy
8:56 PM 75.9 °F - 68.0 °F 76% 29.62 in 8.0 mi South 17.3 mph - N/A   Mostly Cloudy
9:33 PM 75.2 °F - 68.0 °F 78% 29.69 in 8.0 mi WNW 15.0 mph 24.2 mph N/A   Partly Cloudy
9:37 PM 75.2 °F - 68.0 °F 78% 29.69 in 8.0 mi NW 18.4 mph 24.2 mph N/A   Mostly Cloudy
9:56 PM 75.0 °F - 60.1 °F 60% 29.71 in 9.0 mi NNW 18.4 mph 26.5 mph N/A   Mostly Cloudy
10:01 PM 73.4 °F - 46.4 °F 38% 29.72 in 10.0 mi NNW 13.8 mph 26.5 mph N/A   Overcast
10:56 PM 69.1 °F - 42.1 °F 38% 29.73 in 10.0 mi North 10.4 mph - N/A   Mostly Cloudy
11:56 PM 69.1 °F - 41.0 °F 36% 29.76 in 10.0 mi North 10.4 mph - N/A   Overcast